Tracking 29892 objects as of 21-Nov-2024
HD Live streaming from Space Station
objects crossing your sky now

STARLINK-6157

Track STARLINK-6157 now!
10-day predictions
STARLINK-6157 is classified as:


NORAD ID: 56379
Int'l Code: 2023-061F
Perigee: 565.5 km
Apogee: 566.9 km
Inclination: 43.0 °
Period: 95.8 minutes
Semi major axis: 6937 km
RCS: Unknown
Launch date: May 4, 2023
Source: United States (US)
Launch site: AIR FORCE EASTERN TEST RANGE (AFETR)
Your satellite tracking list
Your tracking list is empty




NASA's NSSDC Master Catalog

Two Line Element Set (TLE):
1 56379U 23061F   24325.82519503  .00001398  00000-0  11852-3 0  9992
2 56379  43.0033 252.2760 0000967 269.4599  90.6133 15.02541460 86571
Source of the keplerian elements: AFSPC